Content
SEND FEEDBACK

Daily
Averages
Monthly
Summary
United States of America

FORT LEE, NEW JERSEY


Home > North America > United States > New Jersey
Elevation: 128 feet     Latitude: 40 46N     Longitude: 073 58W

WEATHER
 
SELECT A DAY
Number of Records: 148,109;   Date Range: 11/1/95 - 7/29/14
 
SHARE

PRINT THIS DATA

[ ← Previous Day ]
WEATHER ALMANAC - JANUARY 6, 2013
[ Next Day → ]
[ °C ]   °F
Weather ElementAverageHighLow
Temperature38.7 °F45 °F (2:51 pm)34 °F (4:51 am)
Dewpoint26.8 °F30.9 °F (7:24 am)21 °F (2:51 am)
Humidity64.1 %89 % (7:24 am)44 % (3:51 pm)
Barometer30.07 in30.21 in (1:51 am)29.97 in (2:51 pm)
Wind Speed7 mph12.7 mph (9:51 pm)
Wind Gust19.6 mph (8:51 am)
Weather ElementAverage
Visibility8.1 mi
Wind DirectionSSE (165 °)

Weather ElementTotal
Precipitation---
Heating Degree Days25.5 (Base 65)
Averaged from 28 records on January 6, 2013
WEATHER CONDITIONS BREAKOUT
WIND DIRECTION BREAKOUT
WEATHER BY HOUR - JANUARY 6, 2013
[ °C ]   °F
Local TimeTemperatureDewpointHumidityBarometerVisibilityWind DirectionWind SpeedGust SpeedPrecipitationEventsConditions
1:51 AM36.0 °F21.9 °F57 %30.21 in10.0 miWSW (240°)4.6 mphOvercast
2:51 AM35.1 °F21.0 °F57 %30.18 in7.0 miNorthOvercast
3:51 AM35.1 °F21.0 °F57 %30.15 in9.0 miVariable4.6 mphOvercast
4:51 AM34.0 °F26.1 °F73 %30.13 in7.0 miWSW (240°)6.9 mph0.00 inOvercast
5:34 AM34.0 °F27.0 °F75 %30.15 in7.0 miWSW (250°)3.5 mph0.00 inOvercast
5:51 AM34.0 °F28.0 °F79 %30.12 in8.0 miWSW (240°)6.9 mph0.00 inOvercast
6:44 AM35.1 °F28.9 °F78 %30.14 in9.0 miWest (260°)9.2 mphOvercast
6:51 AM35.1 °F30.0 °F82 %30.12 in8.0 miWSW (250°)4.6 mphOvercast
7:24 AM34.0 °F30.9 °F89 %30.13 in7.0 miVariable4.6 mphOvercast
7:51 AM34.0 °F30.9 °F89 %30.12 in6.0 miSSW (210°)4.6 mphOvercast
8:51 AM35.1 °F30.9 °F85 %30.11 in5.0 miWSW (250°)9.2 mph19.6 mphOvercast
9:05 AM35.1 °F30.0 °F82 %30.12 in6.0 miWest (260°)9.2 mph18.4 mphHaze
9:51 AM36.0 °F30.0 °F79 %30.11 in6.0 miWest (260°)10.4 mph17.3 mphHaze
10:10 AM37.0 °F30.0 °F76 %30.12 in6.0 miVariable6.9 mphHaze
10:51 AM37.9 °F30.0 °F73 %30.07 in5.0 miWSW (250°)5.8 mphHaze
11:51 AM39.9 °F28.9 °F65 %30.04 in6.0 miWSW (250°)9.2 mphHaze
12:51 PM43.0 °F28.0 °F56 %30.00 in7.0 miSW (230°)5.8 mphClear
1:51 PM44.1 °F26.1 °F49 %29.98 in9.0 miWest (270°)10.4 mphClear
2:51 PM45.0 °F26.1 °F48 %29.97 in10.0 miNorthClear
3:51 PM45.0 °F24.1 °F44 %29.97 in10.0 miVariable4.6 mphClear
4:51 PM45.0 °F24.1 °F44 %29.98 in10.0 miVariable6.9 mphClear
5:51 PM43.0 °F25.0 °F49 %30.00 in10.0 miVariable3.5 mphMostly Cloudy
6:51 PM43.0 °F24.1 °F47 %30.01 in10.0 miVariable6.9 mph16.1 mphOvercast
7:51 PM43.0 °F25.0 °F49 %30.01 in10.0 miNorthOvercast
8:51 PM42.1 °F25.0 °F51 %30.01 in10.0 miWNW (290°)6.9 mphOvercast
9:51 PM42.1 °F25.0 °F51 %30.02 in10.0 miWNW (290°)12.7 mph18.4 mphOvercast
10:51 PM41.0 °F26.1 °F55 %30.03 in10.0 miWNW (290°)8.1 mphClear
11:51 PM41.0 °F26.1 °F55 %30.04 in10.0 miWNW (290°)8.1 mphMostly Cloudy
Hourly data recorded from KNYC, located miles away from Fort Lee, New Jersey







STORIES FROM OUR PARTNERS